1515481200.01,23907,7.5,74296.8,-5.29,-29.17,-29.51,0,*53
1515481201.25,23908,7.5,74296.3,-5.29,-29.29,-29.61,0,*52
1515481202.52,23909,7.5,74298.5,-5.29,-29.29,-29.51,0,*50
1515481203.75,23910,7.5,74286.0,-5.29,-29.17,-29.61,0,*56
1515481204.99,23911,7.5,74292.0,-5.29,-29.17,-29.61,0,*57
1515481206.25,23912,7.5,74302.0,-5.27,-29.13,-29.57,0,*5B
1515481207.51,23913,7.5,74298.0,-5.27,-29.13,-29.57,0,*5A
1515481208.75,23914,7.5,74300.0,-5.29,-29.29,-29.61,0,*5F
1515481210.01,23915,7.5,74312.0,-5.31,-29.17,-29.61,0,*5A
1515481211.25,23916,7.5,74306.3,-5.29,-29.17,-29.61,0,*50
1515481212.5,23917,7.5,74300.0,-5.27,-29.13,-29.61,0,*5B
1515481213.76,23918,7.5,74306.8,-5.27,-29.13,-29.61,0,*54
1515481215.02,23919,7.5,74302.8,-5.27,-29.13,-29.67,0,*53
1515481216.26,23920,7.5,74304.5,-5.29,-29.17,-29.67,0,*53
1515481217.54,23921,7.5,74308.5,-5.27,-29.13,-29.73,0,*5D
1515481218.78,23922,7.5,74302.8,-5.29,-29.17,-29.61,0,*57
1515481220.01,23923,7.5,74310.3,-5.29,-29.17,-29.61,0,*56
1515481221.25,23924,7.5,74314.8,-5.27,-29.23,-29.57,0,*5D
1515481222.51,23925,7.5,74308.8,-5.27,-29.13,-29.61,0,*5A
1515481223.76,23926,7.5,74308.3,-5.27,-29.13,-29.61,0,*59
1515481225.02,23927,7.5,74310.5,-5.27,-29.13,-29.61,0,*58
1515481226.28,23928,7.5,74310.8,-5.27,-29.13,-29.57,0,*52
1515481227.54,23929,7.5,74316.3,-5.27,-29.13,-29.57,0,*53
1515481228.77,23930,7.5,74314.0,-5.25,-29.13,-29.61,0,*5C
1515481230.03,23931,7.5,74308.0,-5.27,-29.13,-29.61,0,*5F
1515481231.26,23932,7.5,74306.5,-5.25,-29.23,-29.73,0,*5E
1515481232.52,23933,7.56,74312.5,-5.27,-29.13,-29.61,0,*5D
1515481233.8,23934,7.5,74300.3,-5.27,-29.13,-29.73,0,*59
1515481235.06,23935,7.5,74300.8,-5.27,-29.23,-29.73,0,*5B
1515481236.32,23936,7.5,74300.5,-5.25,-29.13,-29.73,0,*59
1515481237.55,23937,7.5,74302.8,-5.27,-29.23,-29.61,0,*5A
1515481238.81,23938,7.5,74304.5,-5.27,-29.23,-29.73,0,*56
1515481240.04,23939,7.5,74304.3,-5.25,-29.23,-29.73,0,*55
1515481241.3,23940,7.5,74308.5,-5.27,-29.23,-29.73,0,*59
1515481242.56,23941,7.5,74310.8,-5.27,-29.23,-29.73,0,*58
1515481243.84,23942,7.5,74302.8,-5.27,-29.13,-29.73,0,*58
1515481245.1,23943,7.56,74308.5,-5.27,-29.23,-29.73,0,*5A
1515481246.33,23944,7.5,74298.8,-5.27,-29.23,-29.61,0,*5E
1515481247.59,23945,7.5,74292.5,-5.27,-29.23,-29.73,0,*5C
1515481248.85,23946,7.5,74302.8,-5.25,-29.13,-29.73,0,*5E
1515481250.11,23947,7.5,74294.3,-5.27,-29.23,-29.73,0,*5E
1515481251.34,23948,7.5,74298.3,-5.27,-29.23,-29.79,0,*5B
1515481252.6,23949,7.5,74296.8,-5.27,-29.23,-29.89,0,*55
1515481253.83,23950,7.5,74302.0,-5.27,-29.23,-29.79,0,*52
1515481255.1,23951,7.56,74306.3,-5.27,-29.23,-29.89,0,*5C
1515481256.38,23952,7.5,74294.5,-5.27,-29.29,-29.89,0,*55
1515481257.64,23953,7.5,74296.8,-5.27,-29.29,-29.79,0,*5B
1515481258.89,23954,7.5,74294.8,-5.27,-29.29,-29.79,0,*5C
1515481260.12,23955,7.5,74300.5,-5.27,-29.23,-29.79,0,*57
1515481261.39,23956,7.5,74306.8,-5.25,-29.29,-29.89,0,*53
1515481262.62,23957,7.5,74300.0,-5.27,-29.23,-29.79,0,*55
1515481263.88,23958,7.5,74302.5,-5.27,-29.23,-29.89,0,*55
1515481265.16,23959,7.5,74306.3,-5.25,-29.39,-29.89,0,*5D
1515481266.44,23960,7.5,74306.5,-5.27,-29.29,-29.89,0,*54
1515481267.71,23961,7.5,74294.3,-5.25,-29.29,-29.89,0,*57
1515481268.96,23962,7.5,74292.8,-5.27,-29.29,-29.95,0,*5B
1515481270.24,23963,7.5,74300.5,-5.25,-29.39,-29.89,0,*54
1515481271.49,23964,7.5,74294.5,-5.27,-29.29,-29.79,0,*5F
1515481272.78,23965,7.5,74296.8,-5.27,-29.29,-29.89,0,*51
1515481274.07,23966,7.5,74298.0,-5.27,-29.39,-29.89,0,*53
1515481275.33,23967,7.5,74296.5,-5.25,-29.29,-30.05,0,*5D
1515481276.57,23968,7.5,74302.0,-5.25,-29.29,-29.95,0,*53
1515481277.83,23969,7.5,74292.3,-5.25,-29.39,-30.05,0,*52
1515481279.12,23970,7.5,74294.5,-5.27,-29.39,-30.05,0,*58
1515481280.36,23971,7.5,74290.8,-5.25,-29.39,-29.95,0,*5A
1515481281.62,23972,7.5,74298.5,-5.27,-29.29,-29.95,0,*5A
1515481282.84,23973,7.5,74298.3,-5.25,-29.45,-29.95,0,*53
1515481284.1,23974,7.5,74296.0,-5.25,-29.39,-30.05,0,*5E
1515481285.39,23975,7.56,74302.0,-5.27,-29.39,-30.05,0,*5D
1515481286.61,23976,7.5,74304.3,-5.25,-29.45,-29.95,0,*56
1515481287.87,23977,7.5,74306.3,-5.25,-29.39,-30.05,0,*5D
1515481289.11,23978,7.56,74304.8,-5.25,-29.45,-30.05,0,*59
1515481290.35,23979,7.5,74304.3,-5.27,-29.45,-29.95,0,*5B
1515481291.56,23980,7.5,74308.0,-5.25,-29.45,-30.11,0,*5B
1515481292.8,23981,7.5,74308.0,-5.27,-29.45,-29.95,0,*5C
1515481294.06,23982,7.5,74312.5,-5.27,-29.45,-30.05,0,*5E
1515481295.3,23983,7.5,74300.3,-5.25,-29.39,-29.95,0,*57
1515481296.57,23984,7.56,74306.0,-5.25,-29.39,-30.05,0,*51
1515481297.84,23985,7.5,74298.3,-5.27,-29.45,-30.17,0,*5A
1515481299.08,23986,7.5,74298.5,-5.27,-29.45,-29.95,0,*5B
1515481300.32,23987,7.5,74298.8,-5.25,-29.45,-30.05,0,*59
1515481301.58,23988,7.5,74292.0,-5.27,-29.45,-30.05,0,*54
1515481302.84,23989,7.5,74286.5,-5.27,-29.45,-30.05,0,*55
1515481304.11,23990,7.5,74292.0,-5.27,-29.45,-30.17,0,*5E
1515481305.32,23991,7.5,74288.8,-5.25,-29.45,-30.11,0,*5B
1515481306.59,23992,7.5,74292.3,-5.25,-29.39,-30.05,0,*56
1515481307.86,23993,7.5,74292.3,-5.25,-29.39,-30.05,0,*57
1515481309.12,23994,7.5,74300.3,-5.27,-29.45,-30.05,0,*59
1515481310.36,23995,7.5,74296.8,-5.27,-29.45,-30.11,0,*5D
1515481311.57,23996,7.56,74306.5,-5.25,-29.57,-30.11,0,*5F
1515481312.81,23997,7.5,74306.8,-5.27,-29.45,-30.11,0,*5F
1515481314.02,23998,7.5,74308.5,-5.25,-29.45,-30.11,0,*52
1515481315.25,23999,7.5,74310.5,-5.27,-29.57,-30.11,0,*52
1515481316.5,24000,7.5,74308.8,-5.25,-29.57,-30.17,0,*58
1515481317.77,24001,7.56,74314.8,-5.27,-29.57,-30.17,0,*5B
1515481319.04,24002,7.5,74308.5,-5.27,-29.57,-30.17,0,*58
1515481320.29,24003,7.5,74306.0,-5.25,-29.57,-30.17,0,*5B
1515481321.53,24004,7.5,74304.5,-5.27,-29.57,-30.27,0,*5D
1515481322.78,24005,7.5,74296.8,-5.25,-29.57,-30.17,0,*5D
1515481323.99,24006,7.5,74296.5,-5.25,-29.61,-30.27,0,*58
1515481325.25,24007,7.5,74296.0,-5.27,-29.73,-30.27,0,*58
1515481326.51,24008,7.5,74294.0,-5.27,-29.73,-30.27,0,*57
1515481327.74,24009,7.5,74296.8,-5.27,-29.61,-30.27,0,*55
1515481328.98,24010,7.5,74304.0,-5.27,-29.61,-30.27,0,*5D
1515481330.22,24011,7.5,74304.8,-5.27,-29.61,-30.27,0,*5C
1515481331.48,24012,7.5,74308.8,-5.27,-29.73,-30.33,0,*59
1515481332.69,24013,7.5,74304.8,-5.25,-29.61,-30.27,0,*5C
1515481333.93,24014,7.5,74304.0,-5.27,-29.61,-30.27,0,*59
1515481335.16,24015,7.56,74316.5,-5.25,-29.73,-30.27,0,*59
1515481336.42,24016,7.56,74310.0,-5.27,-29.73,-30.27,0,*58
1515481337.64,24017,7.5,74300.8,-5.25,-29.61,-30.27,0,*58
1515481338.87,24018,7.5,74308.8,-5.25,-29.73,-30.27,0,*54
1515481340.11,24019,7.5,74308.5,-5.27,-29.61,-30.27,0,*54
1515481341.35,24020,7.56,74304.5,-5.27,-29.57,-30.11,0,*5E
1515481342.62,24021,7.5,74298.0,-5.27,-29.57,-30.17,0,*59
1515481343.85,24022,7.5,74302.0,-5.27,-29.61,-30.27,0,*5C
1515481345.12,24023,7.5,74304.3,-5.27,-29.57,-30.17,0,*5B
1515481346.36,24024,7.56,74302.8,-5.27,-29.61,-30.27,0,*5A
1515481347.6,24025,7.5,74306.8,-5.27,-29.61,-30.27,0,*5B
1515481348.81,24026,7.5,74298.5,-5.25,-29.61,-30.27,0,*5A
1515481350.05,24027,7.5,74294.3,-5.27,-29.61,-30.33,0,*5C
1515481351.29,24028,7.5,74294.3,-5.27,-29.61,-30.33,0,*53
1515481352.53,24029,7.5,74288.3,-5.27,-29.61,-30.33,0,*52
1515481353.75,24030,7.5,74290.8,-5.25,-29.61,-30.33,0,*58
1515481354.99,24031,7.5,74286.5,-5.27,-29.61,-30.33,0,*5B
1515481356.25,24032,7.5,74278.5,-5.27,-29.73,-30.33,0,*5B
1515481357.47,24033,7.5,74280.5,-5.25,-29.61,-30.33,0,*5B
1515481358.71,24034,7.5,74282.8,-5.27,-29.61,-30.33,0,*5E
1515481359.98,24035,7.5,74282.3,-5.27,-29.73,-30.33,0,*5C
1515481361.24,24036,7.5,74292.5,-5.27,-29.73,-30.33,0,*5F
1515481362.48,24037,7.56,74292.3,-5.27,-29.79,-30.33,0,*54
1515481363.74,24038,7.5,74290.0,-5.27,-29.73,-30.33,0,*51
1515481364.98,24039,7.5,74276.3,-5.25,-29.73,-30.33,0,*52
1515481366.24,24040,7.5,74282.5,-5.27,-29.73,-30.45,0,*5F
1515481367.47,24041,7.5,74284.3,-5.27,-29.79,-30.45,0,*54
1515481368.68,24042,7.5,74278.8,-5.25,-29.79,-30.45,0,*55
1515481369.94,24043,7.5,74280.8,-5.27,-29.79,-30.51,0,*53
1515481371.2,24044,7.5,74286.5,-5.27,-29.79,-30.51,0,*54
1515481372.46,24045,7.5,74290.3,-5.27,-29.73,-30.45,0,*5A
1515481373.68,24046,7.5,74292.0,-5.25,-29.61,-30.45,0,*58
1515481374.92,24047,7.5,74288.0,-5.27,-29.61,-30.33,0,*5A
1515481376.18,24048,7.5,74282.5,-5.27,-29.73,-30.45,0,*57
1515481377.41,24049,7.5,74258.5,-5.27,-29.79,-30.45,0,*5C
1515481378.66,24050,7.5,74264.5,-5.25,-29.89,-30.45,0,*59
1515481379.92,24051,7.56,74280.5,-5.27,-29.79,-30.51,0,*50
1515481381.18,24052,7.5,74272.8,-5.27,-29.79,-30.51,0,*53
1515481382.44,24053,7.5,74272.8,-5.27,-29.79,-30.51,0,*52
1515481383.72,24054,7.5,74272.0,-5.27,-29.89,-30.51,0,*5A
1515481384.96,24055,7.5,74272.5,-5.27,-29.79,-30.45,0,*51
1515481386.23,24056,7.5,74278.3,-5.27,-29.79,-30.61,0,*54
1515481387.49,24057,7.5,74282.3,-5.27,-29.79,-30.51,0,*56
1515481388.72,24058,7.5,74280.0,-5.27,-29.79,-30.45,0,*5C
1515481390.01,24059,7.5,74288.5,-5.27,-29.89,-30.51,0,*57
1515481391.25,24060,7.5,74290.3,-5.27,-29.79,-30.45,0,*57
1515481392.48,24061,7.5,74284.5,-5.27,-29.79,-30.45,0,*56
1515481393.72,24062,7.56,74298.3,-5.27,-29.79,-30.45,0,*55
1515481394.98,24063,7.56,74294.0,-5.27,-29.89,-30.45,0,*5B
1515481396.27,24064,7.5,74292.0,-5.27,-29.89,-30.51,0,*59
1515481397.57,24065,7.5,74292.5,-5.27,-29.89,-30.61,0,*5B
1515481398.86,24066,7.56,74292.0,-5.27,-29.89,-30.51,0,*5B
1515481400.15,24067,7.5,74290.0,-5.27,-29.89,-30.51,0,*5A
1515481401.44,24068,7.5,74292.8,-5.27,-29.89,-30.61,0,*56
1515481402.74,24069,7.56,74298.0,-5.27,-29.89,-30.61,0,*57
1515481403.99,24070,7.5,74294.8,-5.25,-29.95,-30.61,0,*50
1515481405.25,24071,7.56,74296.0,-5.29,-30.01,-30.55,0,*5F
1515481406.54,24072,7.56,74300.0,-5.27,-29.89,-30.61,0,*5D
1515481407.81,24073,7.5,74296.8,-5.27,-29.89,-30.45,0,*5A
1515481409.1,24074,7.56,74298.8,-5.27,-29.89,-30.51,0,*58
1515481410.37,24075,7.5,74294.8,-5.27,-29.95,-30.61,0,*57
1515481411.63,24076,7.5,74292.5,-5.27,-29.95,-30.51,0,*57
1515481412.89,24077,7.5,74286.8,-5.27,-29.95,-30.51,0,*56
1515481414.18,24078,7.5,74278.0,-5.27,-30.05,-30.61,0,*5B
1515481415.47,24079,7.5,74286.5,-5.27,-30.05,-30.61,0,*5A
1515481416.72,24080,7.5,74292.5,-5.27,-29.95,-30.67,0,*5B
1515481417.96,24081,7.56,74288.0,-5.27,-29.95,-30.67,0,*5A
1515481419.23,24082,7.5,74288.8,-5.27,-29.95,-30.51,0,*5C
1515481420.47,24083,7.5,74304.8,-5.29,-30.01,-30.67,0,*53
1515481421.74,24084,7.5,74302.3,-5.29,-30.01,-30.73,0,*51
1515481422.98,24085,7.56,74302.0,-5.29,-30.11,-30.73,0,*51
1515481424.2,24086,7.5,74296.8,-5.29,-30.11,-30.67,0,*57
1515481425.43,24087,7.5,74294.0,-5.29,-30.11,-30.67,0,*56
1515481426.65,24088,7.5,74290.8,-5.29,-30.11,-30.67,0,*59
1515481427.92,24089,7.5,74286.8,-5.31,-30.01,-30.67,0,*50
1515481429.18,24090,7.56,74290.8,-5.29,-30.01,-30.55,0,*50
1515481430.46,24091,7.5,74282.3,-5.27,-30.05,-30.61,0,*5C
1515481431.75,24092,7.56,74290.8,-5.27,-30.05,-30.61,0,*5F
1515481433.02,24093,7.5,74294.8,-5.27,-29.95,-30.61,0,*5F
1515481434.27,24094,7.5,74288.5,-5.29,-30.11,-30.73,0,*51
1515481435.49,24095,7.56,74292.8,-5.29,-30.11,-30.67,0,*55
1515481436.71,24096,7.5,74296.3,-5.29,-30.11,-30.67,0,*56
1515481437.93,24097,7.56,74308.5,-5.29,-30.11,-30.67,0,*57
1515481439.15,24098,7.56,74304.3,-5.29,-30.11,-30.67,0,*58
1515481440.37,24099,7.5,74302.5,-5.29,-30.11,-30.67,0,*59
1515481441.62,24100,7.5,74306.5,-5.29,-30.17,-30.67,0,*5E
1515481442.84,24101,7.5,74310.0,-5.29,-30.11,-30.67,0,*59
1515481444.09,24102,7.5,74312.0,-5.29,-30.11,-30.73,0,*5F
1515481445.31,24103,7.5,74306.5,-5.29,-30.11,-30.67,0,*5B
1515481446.58,24104,7.56,74306.8,-5.29,-30.01,-30.73,0,*58
1515481447.86,24105,7.5,74300.0,-5.27,-30.05,-30.61,0,*50
1515481449.11,24106,7.5,74298.3,-5.27,-29.95,-30.67,0,*54
1515481450.37,24107,7.5,74284.8,-5.27,-30.05,-30.67,0,*54
1515481451.65,24108,7.5,74282.3,-5.29,-30.17,-30.73,0,*53
1515481452.92,24109,7.5,74290.0,-5.29,-30.17,-30.73,0,*52
1515481454.19,24110,7.5,74290.0,-5.29,-30.17,-30.73,0,*5A
1515481455.44,24111,7.56,74298.8,-5.29,-30.11,-30.73,0,*5D
1515481456.68,24112,7.5,74292.5,-5.29,-30.11,-30.73,0,*5E
1515481457.9,24113,7.5,74290.0,-5.29,-30.11,-30.67,0,*5A
1515481459.14,24114,7.56,74292.3,-5.27,-30.11,-30.67,0,*53
1515481460.41,24115,7.5,74292.8,-5.27,-30.17,-30.67,0,*54
1515481461.71,24116,7.5,74292.8,-5.27,-30.17,-30.77,0,*56
1515481462.98,24117,7.5,74290.3,-5.25,-30.17,-30.77,0,*55
1515481464.27,24118,7.5,74298.5,-5.27,-30.17,-30.77,0,*58
1515481465.49,24119,7.5,74306.8,-5.29,-30.23,-30.83,0,*5B
1515481466.76,24120,7.5,74292.0,-5.27,-30.11,-30.77,0,*55
1515481468.06,24121,7.5,74298.5,-5.27,-30.17,-30.77,0,*52
1515481469.33,24122,7.5,74288.8,-5.27,-30.11,-30.77,0,*57
1515481470.57,24123,7.56,74296.5,-5.27,-30.11,-30.67,0,*57
1515481471.83,24124,7.5,74314.3,-5.27,-30.05,-30.67,0,*55
1515481473.1,24125,7.5,74314.0,-5.29,-30.17,-30.73,0,*5C
1515481474.34,24126,7.5,74308.5,-5.29,-30.23,-30.73,0,*58
1515481475.62,24127,7.5,74310.8,-5.29,-30.17,-30.73,0,*5E
1515481476.89,24128,7.56,74306.3,-5.29,-30.17,-30.73,0,*51
1515481478.13,24129,7.5,74304.0,-5.29,-30.23,-30.73,0,*57
1515481479.37,24130,7.56,74302.8,-5.27,-30.11,-30.67,0,*55
1515481480.65,24131,7.5,74302.0,-5.29,-30.17,-30.73,0,*59
1515481481.94,24132,7.5,74300.5,-5.31,-30.17,-30.73,0,*53
1515481483.23,24133,7.5,74300.8,-5.27,-30.17,-30.61,0,*56
1515481484.5,24134,7.5,74296.3,-5.27,-30.17,-30.67,0,*57
1515481485.77,24135,7.56,74304.3,-5.27,-30.17,-30.67,0,*56
1515481487.07,24136,7.5,74304.0,-5.27,-30.17,-30.77,0,*54
1515481488.31,24137,7.5,74298.5,-5.29,-30.17,-30.83,0,*50
1515481489.58,24138,7.5,74300.5,-5.27,-30.17,-30.67,0,*5B
1515481490.83,24139,7.5,74294.5,-5.29,-30.17,-30.67,0,*54
1515481492.07,24140,7.5,74292.8,-5.27,-30.11,-30.67,0,*52
1515481493.34,24141,7.5,74288.3,-5.27,-30.17,-30.67,0,*55
1515481494.58,24142,7.5,74288.3,-5.29,-30.23,-30.73,0,*5A
1515481495.86,24143,7.5,74288.8,-5.29,-30.17,-30.73,0,*5C
1515481497.13,24144,7.5,74294.0,-5.29,-30.17,-30.73,0,*5B
1515481498.37,24145,7.5,74302.5,-5.29,-30.23,-30.73,0,*5D
1515481499.64,24146,7.5,74296.5,-5.29,-30.17,-30.73,0,*59
1515481500.86,24147,7.5,74302.3,-5.29,-30.23,-30.67,0,*5A
1515481502.1,24148,7.5,74296.8,-5.29,-30.23,-30.73,0,*50
1515481503.35,24149,7.5,74302.0,-5.29,-30.23,-30.73,0,*51
1515481504.62,24150,7.5,74306.8,-5.29,-30.17,-30.73,0,*5E
1515481505.88,24151,7.5,74302.5,-5.31,-30.23,-30.73,0,*51
1515481507.13,24152,7.5,74304.8,-5.29,-30.23,-30.73,0,*5B
1515481508.39,24153,7.5,74296.8,-5.27,-30.17,-30.67,0,*56
1515481509.66,24154,7.5,74302.8,-5.27,-30.17,-30.67,0,*51
1515481510.91,24155,7.5,74298.5,-5.25,-30.17,-30.67,0,*52
1515481512.18,24156,7.5,74304.5,-5.27,-30.17,-30.67,0,*53
1515481513.47,24157,7.5,74306.3,-5.27,-30.17,-30.61,0,*54
1515481514.74,24158,7.56,74300.8,-5.27,-30.11,-30.77,0,*5A
1515481516.01,24159,7.5,74300.8,-5.27,-30.27,-30.77,0,*5E
1515481517.25,24160,7.5,74310.3,-5.27,-30.27,-30.83,0,*5F
1515481518.53,24161,7.5,74306.5,-5.27,-30.27,-30.77,0,*55
1515481519.8,24162,7.5,74302.5,-5.27,-30.27,-30.77,0,*56
1515481521.02,24163,7.56,74302.0,-5.29,-30.33,-30.83,0,*57
1515481522.24,24164,7.5,74296.0,-5.25,-30.27,-30.83,0,*59
1515481523.46,24165,7.5,74300.0,-5.29,-30.33,-30.83,0,*51
1515481524.73,24166,7.5,74294.8,-5.27,-30.27,-30.77,0,*52
1515481525.95,24167,7.56,74290.3,-5.29,-30.23,-30.83,0,*52
1515481527.25,24168,7.5,74294.8,-5.27,-30.17,-30.77,0,*5F
1515481528.49,24169,7.5,74296.3,-5.29,-30.23,-30.89,0,*56
1515481529.78,24170,7.5,74302.8,-5.27,-30.17,-30.77,0,*56
1515481531.08,24171,7.56,74306.8,-5.27,-30.17,-30.77,0,*57
1515481532.38,24172,7.5,74306.8,-5.27,-30.17,-30.77,0,*54
1515481533.67,24173,7.5,74304.8,-5.27,-30.17,-30.77,0,*55
1515481534.96,24174,7.5,74308.8,-5.27,-30.17,-30.77,0,*52
1515481536.19,24175,7.5,74310.3,-5.29,-30.23,-30.83,0,*51
1515481537.46,24176,7.5,74308.0,-5.27,-30.27,-30.77,0,*53
1515481538.73,24177,7.5,74302.0,-5.27,-30.27,-30.77,0,*52
1515481540.0,24178,7.5,74298.0,-5.27,-30.27,-30.77,0,*5D
1515481541.27,24179,7.56,74294.8,-5.27,-30.33,-30.77,0,*59
1515481542.53,24180,7.5,74302.5,-5.27,-30.33,-30.77,0,*5F
1515481543.8,24181,7.5,74294.5,-5.27,-30.27,-30.77,0,*5B
1515481545.05,24182,7.5,74300.3,-5.27,-30.27,-30.83,0,*53
1515481546.31,24183,7.56,74302.0,-5.29,-30.39,-30.89,0,*59
1515481547.55,24184,7.5,74302.5,-5.29,-30.39,-30.83,0,*54
1515481548.79,24185,7.5,74294.8,-5.29,-30.39,-30.83,0,*55
1515481550.04,24186,7.5,74282.8,-5.25,-30.33,-30.77,0,*5B
1515481551.27,24187,7.5,74284.5,-5.27,-30.33,-30.83,0,*53
1515481552.55,24188,7.5,74280.0,-5.27,-30.27,-30.77,0,*52
1515481553.79,24189,7.5,74282.0,-5.27,-30.27,-30.83,0,*58
1515481555.06,24190,7.5,74276.8,-5.27,-30.27,-30.77,0,*5B
1515481556.28,24191,7.5,74282.5,-5.29,-30.33,-30.83,0,*5A
1515481557.52,24192,7.56,74288.0,-5.29,-30.39,-30.83,0,*53
1515481558.76,24193,7.5,74278.5,-5.29,-30.39,-30.83,0,*52
1515481560.0,24194,7.5,74286.0,-5.29,-30.39,-30.83,0,*55
1515481561.25,24195,7.5,74284.0,-5.29,-30.33,-30.89,0,*54
1515481562.51,24196,7.5,74286.8,-5.29,-30.39,-30.89,0,*5D
1515481563.8,24197,7.5,74290.3,-5.31,-30.51,-30.89,0,*5B
1515481565.03,24198,7.5,74284.8,-5.29,-30.39,-31.01,0,*52
1515481566.26,24199,7.56,74288.0,-5.29,-30.39,-31.05,0,*57
1515481567.49,24200,7.5,74286.3,-5.29,-30.39,-31.01,0,*50
1515481568.72,24201,7.5,74282.5,-5.29,-30.39,-31.01,0,*51
1515481569.95,24202,7.5,74284.3,-5.29,-30.39,-31.01,0,*52
1515481571.22,24203,7.5,74288.8,-5.29,-30.39,-30.89,0,*52
1515481572.46,24204,7.5,74288.3,-5.29,-30.33,-30.89,0,*5F
1515481573.68,24205,7.5,74294.3,-5.29,-30.33,-30.83,0,*54
1515481574.97,24206,7.5,74290.3,-5.31,-30.39,-30.89,0,*5E
1515481576.25,24207,7.5,74298.5,-5.31,-30.39,-30.89,0,*5F
1515481577.52,24208,7.5,74310.5,-5.29,-30.39,-30.89,0,*59
1515481578.74,24209,7.5,74308.5,-5.29,-30.33,-30.83,0,*58
1515481579.98,24210,7.5,74300.3,-5.31,-30.33,-30.83,0,*59
1515481581.25,24211,7.56,74306.5,-5.29,-30.39,-30.89,0,*51
1515481582.51,24212,7.5,74302.5,-5.29,-30.51,-30.89,0,*5C
1515481583.78,24213,7.5,74296.5,-5.29,-30.51,-30.89,0,*5D
1515481585.02,24214,7.5,74292.0,-5.29,-30.51,-30.83,0,*50
1515481586.29,24215,7.5,74284.3,-5.29,-30.55,-30.89,0,*5F
1515481587.53,24216,7.5,74284.3,-5.29,-30.51,-30.83,0,*52
1515481588.8,24217,7.5,74280.0,-5.29,-30.39,-30.89,0,*57
1515481590.03,24218,7.5,74280.3,-5.29,-30.39,-30.83,0,*52
1515481591.3,24219,7.5,74278.3,-5.29,-30.39,-30.89,0,*59
1515481592.57,24220,7.5,74280.3,-5.31,-30.51,-30.83,0,*5E
1515481593.83,24221,7.5,74280.0,-5.29,-30.39,-30.89,0,*52
1515481595.12,24222,7.5,74286.3,-5.31,-30.39,-30.89,0,*58
1515481596.38,24223,7.5,74288.8,-5.31,-30.51,-31.05,0,*52
1515481597.63,24224,7.5,74290.5,-5.31,-30.51,-31.01,0,*51
1515481598.86,24225,7.5,74288.0,-5.29,-30.55,-31.01,0,*5D
1515481600.1,24226,7.5,74284.8,-5.29,-30.51,-31.05,0,*5E
1515481601.34,24227,7.5,74290.3,-5.29,-30.51,-31.01,0,*5B
1515481602.57,24228,7.5,74292.5,-5.29,-30.51,-31.01,0,*54
1515481603.86,24229,7.56,74294.8,-5.31,-30.51,-30.89,0,*5D
1515481605.12,24230,7.5,74292.3,-5.31,-30.51,-31.01,0,*54
1515481606.39,24231,7.5,74298.0,-5.29,-30.51,-30.89,0,*5D
1515481607.64,24232,7.5,74292.8,-5.31,-30.39,-31.01,0,*58
1515481608.91,24233,7.5,74292.8,-5.29,-30.55,-30.89,0,*5B
1515481610.16,24234,7.5,74302.8,-5.31,-30.51,-31.01,0,*50
1515481611.4,24235,7.5,74302.8,-5.29,-30.51,-31.01,0,*58
1515481612.66,24236,7.5,74300.5,-5.31,-30.51,-31.01,0,*52
1515481613.92,24237,7.5,74300.0,-5.31,-30.51,-31.05,0,*57
1515481615.16,24238,7.5,74304.5,-5.31,-30.67,-31.17,0,*5E
1515481616.4,24239,7.5,74306.0,-5.31,-30.67,-31.01,0,*58
1515481617.65,24240,7.5,74302.8,-5.31,-30.51,-31.01,0,*53
1515481618.89,24241,7.5,74314.3,-5.29,-30.51,-31.01,0,*5B
1515481620.14,24242,7.5,74304.0,-5.31,-30.55,-31.05,0,*51
1515481621.4,24243,7.5,74304.8,-5.31,-30.51,-31.01,0,*50
1515481622.66,24244,7.5,74304.3,-5.31,-30.55,-31.05,0,*57
1515481623.89,24245,7.5,74312.5,-5.29,-30.55,-31.01,0,*5B
1515481625.18,24246,7.5,74320.0,-5.31,-30.51,-30.89,0,*54
1515481626.44,24247,7.5,74310.0,-5.31,-30.51,-31.01,0,*54
1515481627.69,24248,7.5,74314.3,-5.31,-30.55,-31.01,0,*5F
1515481628.95,24249,7.5,74310.0,-5.31,-30.51,-31.05,0,*5E
1515481630.24,24250,7.5,74312.8,-5.31,-30.55,-30.89,0,*57
1515481631.51,24251,7.5,74312.0,-5.31,-30.51,-30.83,0,*58
1515481632.79,24252,7.5,74308.0,-5.31,-30.39,-30.89,0,*5F
1515481634.08,24253,7.5,74312.0,-5.31,-30.55,-30.89,0,*54
1515481635.37,24254,7.5,74306.5,-5.31,-30.51,-30.89,0,*57
1515481636.66,24255,7.5,74300.5,-5.31,-30.55,-30.89,0,*52
1515481637.95,24256,7.5,74306.8,-5.31,-30.55,-30.89,0,*51
1515481639.23,24257,7.5,74292.0,-5.31,-30.55,-30.89,0,*50
1515481640.52,24258,7.5,74288.0,-5.31,-30.51,-30.89,0,*5B
1515481641.81,24259,7.56,74292.5,-5.31,-30.55,-30.89,0,*5E
1515481643.07,24260,7.5,74300.0,-5.31,-30.55,-31.01,0,*55
1515481644.35,24261,7.5,74302.3,-5.31,-30.55,-30.89,0,*55
1515481645.59,24262,7.5,74298.8,-5.29,-30.51,-31.01,0,*5A
1515481646.88,24263,7.5,74304.3,-5.31,-30.55,-30.89,0,*57
1515481648.12,24264,7.5,74302.3,-5.29,-30.51,-30.83,0,*57
1515481649.41,24265,7.5,74306.3,-5.31,-30.51,-30.89,0,*55
1515481650.7,24266,7.5,74310.8,-5.31,-30.55,-30.89,0,*52
1515481651.95,24267,7.5,74318.0,-5.31,-30.55,-31.01,0,*52
1515481653.19,24268,7.5,74314.3,-5.31,-30.67,-31.01,0,*5C
1515481654.45,24269,7.5,74310.5,-5.31,-30.55,-31.01,0,*5C
1515481655.68,24270,7.5,74304.3,-5.29,-30.55,-31.01,0,*5D
1515481656.91,24271,7.5,74310.8,-5.29,-30.55,-31.01,0,*5C
1515481658.15,24272,7.5,74306.3,-5.31,-30.67,-31.01,0,*57
1515481659.39,24273,7.5,74306.5,-5.31,-30.67,-31.05,0,*52
1515481660.62,24274,7.5,74308.5,-5.31,-30.67,-31.01,0,*51
1515481661.86,24275,7.5,74308.5,-5.31,-30.67,-31.01,0,*50
1515481663.1,24276,7.5,74310.3,-5.31,-30.67,-31.01,0,*53
1515481664.34,24277,7.5,74312.3,-5.31,-30.67,-31.01,0,*52
1515481665.57,24278,7.5,74312.5,-5.29,-30.55,-31.01,0,*55
1515481666.83,24279,7.5,74318.0,-5.31,-30.55,-31.01,0,*5D
1515481668.12,24280,7.5,74316.0,-5.31,-30.51,-30.89,0,*5E
1515481669.41,24281,7.5,74316.5,-5.31,-30.55,-30.89,0,*5B
1515481670.67,24282,7.5,74318.5,-5.29,-30.55,-30.89,0,*51
1515481671.89,24283,7.5,74318.3,-5.29,-30.67,-31.01,0,*50
1515481673.12,24284,7.5,74316.5,-5.31,-30.67,-31.01,0,*5E
1515481674.41,24285,7.5,74310.0,-5.31,-30.55,-30.89,0,*5F
1515481675.69,24286,7.56,74314.3,-5.31,-30.55,-30.95,0,*51
1515481676.96,24287,7.5,74312.5,-5.33,-30.61,-30.95,0,*55
1515481678.22,24288,7.5,74316.8,-5.33,-30.61,-31.05,0,*52
1515481679.5,24289,7.56,74322.5,-5.31,-30.55,-30.89,0,*53
1515481680.79,24290,7.5,74326.0,-5.31,-30.55,-30.89,0,*5B
1515481682.08,24291,7.5,74332.3,-5.31,-30.51,-30.89,0,*5E
1515481683.34,24292,7.5,74326.5,-5.31,-30.55,-31.01,0,*58
1515481684.55,24293,7.56,74324.0,-5.29,-30.67,-31.05,0,*55
1515481685.79,24294,7.56,74324.0,-5.31,-30.67,-31.01,0,*5F
1515481687.05,24295,7.5,74314.8,-5.31,-30.55,-31.05,0,*5B
1515481688.3,24296,7.5,74324.0,-5.31,-30.55,-31.05,0,*58
1515481689.56,24297,7.5,74322.8,-5.31,-30.73,-31.01,0,*59
1515481690.82,24298,7.5,74322.3,-5.31,-30.73,-31.01,0,*56
1515481692.06,24299,7.5,74318.3,-5.31,-30.67,-31.01,0,*52
1515481693.32,24300,7.5,74318.0,-5.31,-30.73,-31.05,0,*52
1515481694.58,24301,7.5,74318.8,-5.35,-30.77,-31.11,0,*56
1515481695.82,24302,7.5,74318.3,-5.31,-30.67,-31.01,0,*51
1515481697.06,24303,7.5,74312.5,-5.31,-30.67,-31.05,0,*54
1515481698.28,24304,7.56,74316.5,-5.29,-30.67,-31.05,0,*5A
1515481699.54,24305,7.5,74304.5,-5.31,-30.73,-31.05,0,*57
1515481700.8,24306,7.5,74300.0,-5.31,-30.73,-31.01,0,*50
1515481702.06,24307,7.5,74308.3,-5.33,-30.77,-31.05,0,*53
1515481703.32,24308,7.5,74306.8,-5.31,-30.73,-31.01,0,*5E
1515481704.56,24309,7.5,74314.3,-5.31,-30.67,-31.01,0,*5A
1515481705.82,24310,7.5,74318.3,-5.31,-30.73,-31.05,0,*53
1515481707.06,24311,7.5,74316.8,-5.31,-30.67,-31.01,0,*53
1515481708.31,24312,7.5,74324.5,-5.33,-30.73,-31.05,0,*53
1515481709.54,24313,7.5,74320.8,-5.35,-30.77,-31.05,0,*50
1515481710.8,24314,7.5,74318.0,-5.33,-30.73,-31.05,0,*55
1515481712.08,24315,7.5,74320.5,-5.33,-30.89,-31.11,0,*54
1515481713.36,24316,7.5,74320.3,-5.33,-30.77,-31.23,0,*57
1515481714.64,24317,7.5,74320.8,-5.33,-30.73,-31.11,0,*53
1515481715.9,24318,7.5,74326.0,-5.33,-30.77,-31.05,0,*5D
1515481717.15,24319,7.5,74324.0,-5.35,-30.77,-31.11,0,*5F